Regional Weather Roundup
Issued by NWS

Home | Current Version | Previous Version | Text Only | Print | Product List | Glossary On
Versions: 1 2 3 4 5 6 7 8 9 10 11 12 13 14 15 16 17 18 19 20 21 22 23 24 25 26 27 28 29 30 31 32 33 34 35 36 37 38 39 40 41 42 43 44 45 46 47 48 49 50
000
ASUS43 KIND 260410
RWRIN

WEATHER ROUNDUP FOR INDIANA
NATIONAL WEATHER SERVICE INDIANAPOLIS IN
1200 AM EDT TUE SEP 26 2017

NOTE: "FAIR" INDICATES FEW OR NO CLOUDS BELOW 12,000 FEET WITH NO
SIGNIFICANT WEATHER AND/OR OBSTRUCTIONS TO VISIBILITY.

* - STATION DOES NOT REPORT WEATHER SUCH AS PRECIPITATION OR FOG.

+ - STATION NOT QUALITY CONTROLLED BY THE NATIONAL WEATHER SERVICE.
    USE DATA WITH CAUTION...ESPECIALLY DEWPOINT AND RELATIVE
    HUMIDITY OBSERVATIONS.

INZ001>003-010>013-019-020-260500-
NORTHWEST INDIANA

CITY           SKY/WX    TMP DP  RH WIND       PRES   REMARKS
GARY /AIRPORT/ CLEAR     65  61  86 SE3       29.95S
KNOX *+        CLEAR     63  59  88 SE5       29.97S
LA PORTE +     CLEAR     65  59  81 CALM      29.98S
MICHIGAN CITY+ CLEAR     63  61  94 CALM      29.97S
MONTICELLO +   CLEAR     68  63  84 CALM      29.96F
RENSSELAER +   CLEAR     70  52  52 CALM      29.96S
VALPARAISO     CLEAR     68  59  73 CALM      29.97S

$$

LMZ046-743>745-260500-
SOUTHERN LAKE MICHIGAN

STATION/POSITION TIME  TEMP    WIND        PRES    WAVE
                       AIR SEA DIR/SP/G            HT
                 (UTC) (F)     (DEG/KT/KT) (MB)    (FT)
BURNS HARBOR     0340   79     160/  5/  8 1014.6S
MICHIGAN CITY    0340   77     140/  9/ 10   N/A
5NW MICH CITY    0400   74 72  160/  6/  8   N/A     0

$$

INZ004-005-014>016-021>024-260500-
NORTH CENTRAL INDIANA

CITY           SKY/WX    TMP DP  RH WIND       PRES   REMARKS
GOSHEN         CLEAR     66  59  78 CALM      29.98S
LOGANSPORT +   CLEAR     64  57  77 CALM      29.98F
PERU/GRISSOM   CLEAR     69  59  70 SE3       29.97S
SOUTH BEND     CLEAR     65  60  84 CALM      29.98S
WARSAW +       CLEAR     63  63 100 CALM      29.99S

$$

INZ006>009-017-018-025>027-260500-
NORTHEAST INDIANA

CITY           SKY/WX    TMP DP  RH WIND       PRES   REMARKS
AUBURN +       CLEAR     66  61  82 CALM      30.00S
FORT WAYNE     CLEAR     67  61  81 CALM      29.99S
HUNTINGTON +   CLEAR     65  64  96 CALM      29.99S
KENDALLVILLE + CLEAR     65  63  93 CALM      30.00S

$$

INZ028-029-035-036-043>045-051>053-260500-
WEST CENTRAL INDIANA

CITY           SKY/WX    TMP DP  RH WIND       PRES   REMARKS
CRAWFORDSVL +  CLEAR     63  61  94 CALM      29.98
GREENCASTLE +  CLEAR     68  61  77 CALM      29.99F
LAFAYETTE      CLEAR     68  63  84 CALM      29.96S
TERRE HAUTE    CLEAR     72  63  73 SE3       29.97S

$$

INZ030>032-037>040-046>048-054>057-064-065-260500-
CENTRAL INDIANA

CITY           SKY/WX    TMP DP  RH WIND       PRES   REMARKS
CP ATTERBURY + CLEAR     64  63  94 CALM      29.99S
FISHERS *+     CLEAR     66  63  88 CALM      29.99
FRANKFORT +    CLOUDY    68  62  80 CALM      30.00F
GREENWOOD *+   CLEAR     70  65  85 CALM      30.00S
INDIANAPOLIS   CLEAR     73  63  70 SW5       29.98F
-EAGLE CREEK   CLEAR     71  61  70 CALM      29.98S
KOKOMO +       CLEAR     68  61  78 CALM      29.99S
MT COMFORT *+  CLEAR     64  61  88 SE5       30.00S
SHELBYVILLE    CLEAR     66  60  81 SE5       29.98F
ZIONSVILLE +   CLEAR     63  61  94 CALM      29.99F

$$

INZ033-034-041-042-049-050-058-059-260500-
EAST CENTRAL INDIANA

CITY           SKY/WX    TMP DP  RH WIND       PRES   REMARKS
MUNCIE         CLEAR     76  62  62 S7        29.99S
RICHMOND +     CLEAR     64  61  88 S3        30.02S FOG

$$

INZ060-061-067>069-081>083-085>088-260500-
SOUTHWEST INDIANA

CITY           SKY/WX    TMP DP  RH WIND       PRES   REMARKS
EVANSVILLE     CLEAR     72  67  84 CALM      29.97S
HUNTINGBURG +  CLEAR     70  68  93 CALM      29.98S
WASHINGTON +   CLEAR     68  63  85 CALM      29.97S

$$

INZ062-063-066-070>080-084-089>092-260500-
SOUTH CENTRAL AND SOUTHEAST INDIANA

CITY           SKY/WX    TMP DP  RH WIND       PRES   REMARKS
BEDFORD +      CLEAR     70  64  83 CALM      29.98S
BLOOMINGTON    CLEAR     69  62  78 CALM      29.99S
MADISON *+     CLEAR     66  64  94 CALM      30.02S
NORTH VERNON + CLEAR     64  64 100 CALM      30.01R
SEYMOUR +      CLEAR     68  64  88 E3        29.99S

$$





USA.gov is the U.S. government's official web portal to all federal, state and local government web resources and services.